Location: Carimao
(10.4546°N, 66.7419°W)
Time: 08:24:14
(UTC+00:00)

YAOGAN 1 - Pass Details

Date: 19 May 2024
Orbit: 611 x 614 km, 97.8° (Epoch: 22 June)

Event Time Altitude Azimuth Distance (km) Brightness Sun altitude
Exits shadow 23:39:06 - 174° (S) 2,760 5.6 -13.7°
Reaches altitude 10° 23:41:02 10° 176° (S) 1,966 4.9 -14.1°
Maximum altitude 23:45:16 67° 259° (WSW) 663 2.9 -15.1°
Drops below altitude 10° 23:49:31 10° 342° (NNW) 1,966 5.7 -16.0°
Sets 23:51:43 0° 345° (NNW) 2,870 6.6 -16.5°
